COSMOS 1375 DEB, 18278

Orbit data source: Space-Track

COSMOS 1375 DEB, 18278 is space debris in LEO originally from a launch on Sun, 06 Jun 1982 UTC launched from the Plesetsk Missile And Space Complex (PKMTR). Debris objects in space refer to the collection of defunct objects orbiting the Earth. Examples of debris include non-operational satellites, rocket bodies, and fragments generated from explosions, collisions, or faulty payload assembly.

Loading next visibility...
Identifier
18278, 1982-055BA
Orbit
LEO
Country
Flag of CISCIS
Related business
Manufacturer
Unknown
Mission
Spacecraft
Bus & Motor
Unknown
Mass
Unknown
Launch date (UTC)
1982-06-06 (44 years ago)
Launch vehicle
Unknown
Launch site
Plesetsk Missile And Space Complex (PKMTR)
Object type
Payload
Rocket body
Debris
Shape & HBR
Unknown shape, 0.1 m
Radar Cross Section
Medium (>0.1 m² and <1 m²)

Expand to show TLE details & history
Last TLE update: 2 days ago

TLE from 2 days ago
0 COSMOS 1375 DEB
1 18278U 82055BA  26171.39298529  .00000377  00000-0  36732-3 0  9991
2 18278  65.8305 286.3578 0037146 194.6385 234.8772 13.90657485 52289
Epoch: 2026-06-20T09:25Z
TLE epoch observation values (Epoch: 2026-06-20T09:25:53.929Z)
Latitude
58.62412°
Longitude
-76.6643°
Altitude
951.001 km
Speed
7.374 km/s
True Right ascension
22h 13m 40s
True Declination
58° 28' 30"
Sunlit
Object was in daylight at epoch
Visualization orbit readout
Latitude
Unknown
Longitude
Unknown
Altitude
Unknown
Speed
Unknown
Apparent Right ascension
Unknown
Apparent Declination
Unknown
Sunlit
N/A
Visualization observer readout
Local Sidereal Time
08:25:06
Azimuth
Unknown
Elevation
Unknown
Doppler factor
Unknown
Orbital elements
Apogee altitude
951.961 km
Perigee altitude
897.706 km
Semi-major axis
7,302.971 km
Eccentricity
0.00371
Inclination
65.8305°
RAAN
286.3578°
Arg. of periapsis
194.6385°
True anomaly
234.52997°
Mean anomaly
234.8772°
Eccentric anomaly
234.70349°
Mean motion
3.47771 °/min
Orbital period
103.52 mins
BSTAR
0.00036732
Loading maneuver chart data...
Computing Atmospheric mass density...
Loading historical data...
Loading historical data...
Loading historical data...
Loading historical data...
Loading historical data...
Loading historical data...
Loading historical data...

Documentation

Showing up to 5 results
|